Date,TemperatureHighF,TemperatureAvgF,TemperatureLowF,DewpointHighF,DewpointAvgF,DewpointLowF,HumidityHigh,HumidityAvg,HumidityLow,PressureMaxIn,PressureMinIn,WindSpeedMaxMPH,WindSpeedAvgMPH,GustSpeedMaxMPH,PrecipitationSumIn
2014-2-1,51.9,40.4,30.4,37.7,30.0,25.8,91,68,43,30.21,29.91,12,1,12,0.01
2014-2-2,46.9,34.0,26.6,42.1,31.1,23.3,93,89,73,30.27,29.95,12,0,12,0.17
2014-2-3,32.4,25.4,16.4,23.2,18.3,12.4,87,75,53,30.46,30.19,10,1,10,0.00
2014-2-4,32.4,24.1,15.0,24.2,17.0,12.2,91,76,50,30.51,30.08,9,0,9,0.00
2014-2-5,30.2,26.3,19.0,28.2,23.3,14.1,92,88,81,30.39,29.70,13,1,14,0.08
2014-2-6,24.3,17.6,7.5,16.9,12.7,4.7,89,81,70,30.50,30.39,15,2,15,0.00
2014-2-7,18.7,8.9,-0.2,8.8,-0.3,-6.0,80,66,46,30.53,30.43,15,2,15,0.00
2014-2-8,21.9,11.5,-1.2,15.5,4.3,-5.0,85,74,49,30.49,30.28,9,0,9,0.00
2014-2-9,27.7,21.3,16.0,23.8,17.1,10.9,90,83,73,30.28,30.06,13,1,14,0.00
2014-2-10,22.2,13.6,2.6,11.9,7.4,-0.6,88,76,58,30.48,30.27,11,1,11,0.00
2014-2-11,20.7,6.9,-6.6,10.9,0.7,-10.4,85,76,59,30.58,30.46,8,0,8,0.00
2014-2-12,35.5,11.8,-9.6,11.8,1.4,-13.8,86,66,30,30.58,30.16,10,0,10,0.03
2014-2-13,37.6,24.7,15.3,27.2,16.0,9.7,82,70,52,30.16,29.66,9,0,9,0.05
2014-2-14,33.3,28.8,23.3,24.5,20.6,15.7,89,71,59,29.82,29.57,29,4,29,0.00
2014-2-15,26.4,21.8,8.7,21.2,15.1,4.0,89,76,49,30.18,29.80,12,2,12,0.00
2014-2-16,26.9,16.8,4.5,22.5,12.6,0.7,89,83,76,30.44,30.07,9,1,9,0.00
2014-2-17,37.5,19.4,-1.0,33.9,11.3,-4.4,91,73,44,30.50,29.81,33,2,33,0.00
2014-2-18,45.4,37.5,31.0,32.8,29.2,25.0,93,73,48,30.15,29.86,20,5,33,0.08
2014-2-19,49.2,42.4,27.6,40.4,32.6,24.8,91,70,44,30.17,29.72,24,3,24,0.02
2014-2-20,56.9,38.4,20.7,48.8,33.8,18.7,93,84,67,30.18,29.69,11,1,11,0.39
2014-2-21,55.1,43.5,37.1,52.2,32.7,17.9,92,68,41,30.00,29.58,29,6,29,0.36
2014-2-22,53.0,42.9,35.0,30.0,24.7,17.2,79,50,35,30.10,29.95,28,4,28,0.00
2014-2-23,40.5,35.1,26.2,34.1,26.8,14.5,89,73,46,30.16,30.05,9,1,9,0.00
2014-2-24,32.1,26.0,21.7,15.6,13.1,8.6,72,59,39,30.25,30.14,21,4,21,0.00
2014-2-25,26.7,23.9,20.4,17.6,15.6,12.7,85,71,60,30.23,30.07,14,2,14,0.00
2014-2-26,24.0,18.4,13.6,17.1,7.6,2.8,83,63,46,30.21,29.87,22,3,22,0.00
2014-2-27,21.5,15.4,4.0,14.1,4.5,-4.1,85,62,43,30.29,29.75,25,5,26,0.00
2014-2-28,30.1,14.4,-0.3,10.3,1.2,-4.8,86,59,29,30.44,30.25,11,1,12,0.00